Location: Unspecified
(50.0830°N, 0.0000°E)
Time: 00:25:42
(UTC+00:00)

Envisat - Pass Details

Date: 21 November 2019
Orbit: 764 x 766 km, 98.1° (Epoch: 14 December)

Event Time Altitude Azimuth Distance (km) Brightness Sun altitude
Rises 06:23:14 0° 19° (NNE) 3,245 6.2 -9.3°
Reaches altitude 10° 06:25:41 10° 27° (NNE) 2,313 5.6 -9.0°
Maximum altitude 06:30:30 41° 97° (E) 1,100 4.5 -8.2°
Drops below altitude 10° 06:35:17 10° 168° (SSE) 2,296 6.0 -7.5°
Sets 06:37:41 0° 175° (S) 3,217 6.6 -7.2°
